Regional Weather Roundup
Issued by NWS

Home | Current Version | Previous Version | Text Only | Print | Product List | Glossary On
Versions: 1 2 3 4 5 6 7 8 9 10 11 12 13 14 15 16 17 18 19 20 21 22 23 24 25 26 27 28 29 30 31 32 33 34 35 36 37 38 39 40 41 42 43 44 45 46 47 48 49 50
000
ASUS43 KLMK 240910
RWRKY
KENTUCKY REGIONAL WEATHER ROUNDUP
NATIONAL WEATHER SERVICE LOUISVILLE KY
500 AM EDT FRI OCT 24 2014

NOTE "FAIR" INDICATES FEW OR NO CLOUDS BELOW 12,000 FEET
WITH NO SIGNIFICANT WEATHER AND/OR OBSTRUCTIONS TO VISIBILITY.

KYZ001>023-026-027-061>063-070>075-241000-
WESTERN AND SOUTH CENTRAL KENTUCKY

CITY           SKY/WX    TMP DP  RH WIND       PRES   REMARKS
PADUCAH        CLEAR     41  39  93 CALM      30.11F
HENDERSON      MOCLDY   N/A N/A N/A CALM      30.12R
OWENSBORO      CLEAR     42  41  97 S3        30.12S
HOPKINSVILLE   PTCLDY    47  47 100 CALM      30.12S
BOWLING GREEN  CLEAR     48  44  86 CALM      30.12R
GLASGOW        CLOUDY    45  45 100 CALM      30.11S
$$

KYZ024-025-028>034-038-045-046-053-241000-
NORTH CENTRAL KENTUCKY

CITY           SKY/WX    TMP DP  RH WIND       PRES   REMARKS
LOUISVILLE/SDF MOCLDY    48  43  82 CALM      30.12S
LOUISVILLE/LOU PTCLDY    44  42  93 CALM      30.13R
FORT KNOX      PTCLDY    41  39  93 SE2       30.11R FOG
$$

KYZ035>037-039>044-047>052-055>060-089>105-241000-
NORTHEAST KENTUCKY

CITY           SKY/WX    TMP DP  RH WIND       PRES   REMARKS
LEXINGTON      MOCLDY    43  39  86 CALM      30.12R
COVINGTON      CLOUDY    43  39  86 CALM      30.12S
FRANKFORT      PTCLDY    40  38  93 CALM      30.11F
$$

KYZ054-064>069-076>088-106>120-241000-
SOUTHEAST KENTUCKY

CITY           SKY/WX    TMP DP  RH WIND       PRES   REMARKS
JACKSON        MOCLDY    44  40  85 CALM      30.12R
LONDON         CLOUDY    43  40  89 CALM      30.11S
SOMERSET       MOCLDY    43  43 100 CALM      30.13R
MIDDLESBORO    CLOUDY    41  40  98 CALM      30.14R
MONTICELLO     CLOUDY    43  43 100 N3        30.13R FOG
$$




USA.gov is the U.S. government's official web portal to all federal, state and local government web resources and services.